Weather History for Anaktuvuk Pass, AK

Change the Weather History Date:

Sunday, October 7, 2012

  Actual Average Record
Temperature  
Mean Temperature 32 °F -  
Max Temperature 35 °F 20 °F 37 °F (2003)
Min Temperature 30 °F 10 °F -11 °F (1996)
Degree Days  
Heating Degree Days 32    
Moisture  
Dew Point 22 °F    
Average Humidity 69    
Maximum Humidity 80    
Minimum Humidity 56    
Precipitation  
Precipitation 0.00 in - - ()
Sea Level Pressure  
Sea Level Pressure 30.07 in    
Wind  
Wind Speed 9 mph (SSW)    
Max Wind Speed 15 mph    
Max Gust Speed 21 mph    
Visibility 10 miles    
Events      
Averages and records for this station are not official NWS values.
T = Trace of Precipitation, MM = Missing Value Source: NWS Daily Summary

Daily Weather History Graph

Daily Weather History Graph

Search for Another Location

Airport:

Trip Planner

Search our weather history database for the weather conditions in past years. The results will help you decide how hot, cold, wet, or windy it might be!

Date:

Astronomy

Oct. 07, 2012 Rise Set
Actual Time 8:44 AM AKDT 7:03 PM AKDT
Civil Twilight 7:48 AM AKDT 7:58 PM AKDT
Nautical Twilight 6:42 AM AKDT 9:03 PM AKDT
Astronomical Twilight 5:32 AM AKDT 10:13 PM AKDT
Moon 10:08 PM AKDT (10/7) 5:49 PM AKDT (10/7)
Length of Visible Light 12h 10m
Length of Day
10h 18m
Waning Gibbous, 55% of the Moon is Illuminated
Oct 7
Waning Gibbous
Oct 7
Last Quarter
Oct 15
New
Oct 21
First Quarter
Oct 29
Full

Hourly Weather History & Observations

Time (AKDT) Temp. Windchill Dew Point Humidity Pressure Visibility Wind Dir Wind Speed Gust Speed Precip Events Conditions
12:16 AM 32.0 °F 24.2 °F 23.0 °F 69% 30.04 in 10.0 mi SSW 9.2 mph - N/A   Overcast
12:36 AM 30.2 °F 21.9 °F 24.8 °F 80% 30.04 in 10.0 mi SSW 9.2 mph - N/A   Overcast
12:56 AM 32.0 °F 24.2 °F 24.8 °F 75% 30.04 in 10.0 mi SSW 9.2 mph - N/A   Overcast
1:16 AM 32.0 °F 23.0 °F 24.8 °F 75% 30.04 in 10.0 mi SSW 11.5 mph - N/A   Overcast
1:36 AM 30.2 °F 22.6 °F 23.0 °F 75% 30.04 in 10.0 mi South 8.1 mph - N/A   Overcast
1:56 AM 30.2 °F 21.9 °F 23.0 °F 75% 30.04 in 10.0 mi SSW 9.2 mph - N/A   Overcast
2:16 AM 30.2 °F 23.4 °F 23.0 °F 75% 30.05 in 10.0 mi SSW 6.9 mph - N/A   Overcast
2:36 AM 30.2 °F 22.6 °F 23.0 °F 75% 30.05 in 10.0 mi SSW 8.1 mph - N/A   Overcast
2:56 AM 30.2 °F 20.8 °F 23.0 °F 75% 30.05 in 10.0 mi South 11.5 mph - N/A   Overcast
3:16 AM 30.2 °F 21.9 °F 23.0 °F 75% 30.05 in 10.0 mi South 9.2 mph - N/A   Overcast
3:36 AM 30.2 °F 21.9 °F 21.2 °F 69% 30.05 in 10.0 mi South 9.2 mph - N/A   Overcast
3:56 AM 30.2 °F 20.8 °F 21.2 °F 69% 30.05 in 10.0 mi South 11.5 mph - N/A   Overcast
4:16 AM 30.2 °F 23.4 °F 21.2 °F 69% 30.04 in 10.0 mi South 6.9 mph - N/A   Overcast
4:36 AM 30.2 °F 25.4 °F 21.2 °F 69% 30.05 in 10.0 mi South 4.6 mph - N/A   Overcast
4:56 AM 30.2 °F 21.3 °F 21.2 °F 69% 30.05 in 10.0 mi SSW 10.4 mph - N/A   Overcast
5:16 AM 30.2 °F 23.4 °F 21.2 °F 69% 30.05 in 10.0 mi SSW 6.9 mph - N/A   Overcast
5:36 AM 30.2 °F 20.2 °F 21.2 °F 69% 30.05 in 10.0 mi SW 12.7 mph - N/A   Overcast
5:56 AM 30.2 °F 21.3 °F 21.2 °F 69% 30.06 in 10.0 mi SW 10.4 mph - N/A   Overcast
6:16 AM 30.2 °F 22.6 °F 21.2 °F 69% 30.05 in 10.0 mi SW 8.1 mph - N/A   Overcast
6:36 AM 30.2 °F 22.6 °F 21.2 °F 69% 30.06 in 10.0 mi SSW 8.1 mph - N/A   Overcast
6:56 AM 30.2 °F 21.9 °F 21.2 °F 69% 30.06 in 10.0 mi South 9.2 mph - N/A   Overcast
7:16 AM 30.2 °F 22.6 °F 21.2 °F 69% 30.06 in 10.0 mi SSW 8.1 mph - N/A   Overcast
7:36 AM 30.2 °F 21.9 °F 21.2 °F 69% 30.06 in 10.0 mi South 9.2 mph - N/A   Overcast
7:56 AM 30.2 °F 21.9 °F 21.2 °F 69% 30.06 in 10.0 mi South 9.2 mph - N/A   Overcast
8:16 AM 30.2 °F 21.3 °F 21.2 °F 69% 30.06 in 10.0 mi South 10.4 mph - N/A   Overcast
8:36 AM 30.2 °F 21.3 °F 21.2 °F 69% 30.06 in 10.0 mi SSW 10.4 mph - N/A   Overcast
8:56 AM 30.2 °F 21.3 °F 23.0 °F 75% 30.06 in 10.0 mi SW 10.4 mph - N/A   Overcast
9:36 AM 30.2 °F 22.6 °F 23.0 °F 75% 30.06 in 10.0 mi SSW 8.1 mph - N/A   Overcast
9:56 AM 30.2 °F 20.8 °F 23.0 °F 75% 30.06 in 10.0 mi SSW 11.5 mph - N/A   Overcast
10:16 AM 30.2 °F 19.3 °F 23.0 °F 75% 30.07 in 10.0 mi SW 15.0 mph 19.6 mph N/A   Overcast
10:36 AM 32.0 °F 22.1 °F 24.8 °F 75% 30.07 in 10.0 mi SW 13.8 mph 20.7 mph N/A   Overcast
10:56 AM 32.0 °F 22.5 °F 24.8 °F 75% 30.07 in 10.0 mi SW 12.7 mph 17.3 mph N/A   Overcast
11:16 AM 33.8 °F 24.8 °F 24.8 °F 70% 30.07 in 10.0 mi SW 12.7 mph - N/A   Overcast
11:36 AM 33.8 °F 25.3 °F 23.0 °F 65% 30.07 in 10.0 mi SW 11.5 mph - N/A   Overcast
11:56 AM 33.8 °F 24.3 °F 24.8 °F 70% 30.07 in 10.0 mi SW 13.8 mph - N/A   Overcast
12:16 PM 33.8 °F 25.8 °F 23.0 °F 65% 30.07 in 10.0 mi SW 10.4 mph - N/A   Overcast
12:36 PM 33.8 °F 23.9 °F 24.8 °F 70% 30.08 in 10.0 mi SW 15.0 mph 20.7 mph N/A   Overcast
12:56 PM 32.0 °F 22.5 °F 24.8 °F 75% 30.08 in 10.0 mi SW 12.7 mph - N/A   Overcast
1:16 PM 33.8 °F 25.3 °F 24.8 °F 70% 30.09 in 10.0 mi SW 11.5 mph - N/A   Overcast
1:36 PM 33.8 °F 24.8 °F 24.8 °F 70% 30.09 in 10.0 mi SW 12.7 mph - N/A   Overcast
1:56 PM 33.8 °F 24.8 °F 24.8 °F 70% 30.09 in 10.0 mi SW 12.7 mph - N/A   Overcast
2:16 PM 33.8 °F 24.3 °F 23.0 °F 65% 30.09 in 10.0 mi WSW 13.8 mph 19.6 mph N/A   Overcast
2:36 PM 33.8 °F 25.8 °F 21.2 °F 60% 30.09 in 10.0 mi WSW 10.4 mph - N/A   Overcast
2:56 PM 33.8 °F 24.8 °F 21.2 °F 60% 30.09 in 10.0 mi WSW 12.7 mph 19.6 mph N/A   Overcast
3:16 PM 35.6 °F 28.0 °F 21.2 °F 56% 30.09 in 10.0 mi SW 10.4 mph - N/A   Overcast
3:36 PM 33.8 °F 26.4 °F 24.8 °F 70% 30.09 in 10.0 mi SW 9.2 mph - N/A   Overcast
3:56 PM 35.6 °F 28.0 °F 21.2 °F 56% 30.09 in 10.0 mi WSW 10.4 mph - N/A   Overcast
4:16 PM 33.8 °F 27.0 °F 21.2 °F 60% 30.08 in 10.0 mi West 8.1 mph - N/A   Overcast
4:36 PM 33.8 °F 27.0 °F 21.2 °F 60% 30.08 in 10.0 mi WSW 8.1 mph - N/A   Overcast
4:56 PM 33.8 °F 26.4 °F 21.2 °F 60% 30.08 in 10.0 mi WSW 9.2 mph 17.3 mph N/A   Overcast
5:16 PM 33.8 °F 25.8 °F 21.2 °F 60% 30.08 in 10.0 mi WSW 10.4 mph - N/A   Overcast
5:36 PM 33.8 °F 26.4 °F 21.2 °F 60% 30.08 in 10.0 mi SW 9.2 mph - N/A   Overcast
5:56 PM 33.8 °F 27.0 °F 21.2 °F 60% 30.08 in 10.0 mi SW 8.1 mph - N/A   Overcast
6:16 PM 33.8 °F 26.4 °F 21.2 °F 60% 30.08 in 10.0 mi SW 9.2 mph - N/A   Overcast
6:36 PM 32.0 °F 24.2 °F 21.2 °F 64% 30.08 in 10.0 mi WSW 9.2 mph - N/A   Mostly Cloudy
6:56 PM 32.0 °F 27.5 °F 21.2 °F 64% 30.09 in 10.0 mi SSW 4.6 mph - N/A   Scattered Clouds
7:16 PM 32.0 °F 27.5 °F 21.2 °F 64% 30.09 in 10.0 mi SW 4.6 mph - N/A   Mostly Cloudy
7:36 PM 30.2 °F 21.9 °F 21.2 °F 69% 30.09 in 10.0 mi South 9.2 mph - N/A   Overcast
7:56 PM 30.2 °F 26.7 °F 21.2 °F 69% 30.09 in 10.0 mi SSW 3.5 mph - N/A   Overcast
8:16 PM 30.2 °F 22.6 °F 23.0 °F 75% 30.09 in 10.0 mi South 8.1 mph - N/A   Overcast
8:36 PM 30.2 °F 25.4 °F 23.0 °F 75% 30.09 in 10.0 mi SSW 4.6 mph - N/A   Overcast
8:56 PM 30.2 °F - 23.0 °F 75% 30.10 in 10.0 mi Calm Calm - N/A   Overcast
9:16 PM 30.2 °F 26.7 °F 23.0 °F 75% 30.10 in 10.0 mi NNE 3.5 mph - N/A   Overcast
9:36 PM 30.2 °F 25.4 °F 21.2 °F 69% 30.10 in 10.0 mi ENE 4.6 mph - N/A   Overcast
9:56 PM 30.2 °F 24.3 °F 21.2 °F 69% 30.11 in 10.0 mi NE 5.8 mph - N/A   Overcast
10:16 PM 30.2 °F 24.3 °F 21.2 °F 69% 30.11 in 10.0 mi ENE 5.8 mph - N/A   Overcast
10:36 PM 30.2 °F 26.7 °F 21.2 °F 69% 30.11 in 10.0 mi ENE 3.5 mph - N/A   Overcast
10:56 PM 30.2 °F 24.3 °F 23.0 °F 75% 30.11 in 10.0 mi NE 5.8 mph - N/A   Overcast
11:16 PM 30.2 °F 24.3 °F 23.0 °F 75% 30.12 in 10.0 mi ENE 5.8 mph - N/A   Overcast
11:36 PM 30.2 °F 26.7 °F 23.0 °F 75% 30.12 in 10.0 mi NE 3.5 mph - N/A   Overcast
11:56 PM 30.2 °F 24.3 °F 23.0 °F 75% 30.12 in 10.0 mi NE 5.8 mph - N/A   Overcast